Location: Albuquerque Trailhead
(34.7934°N, 106.3736°W)
Time: 00:32:19
(UTC+00:00)

NOSS 3-4 (A) - Pass Details

Date: 20 June 2021
Orbit: 869 x 1343 km, 63.4° (Epoch: 31 July)

Event Time Altitude Azimuth Distance (km) Brightness Sun altitude
Exits shadow 11:17:30 - 222° (SW) 2,730 5.2 -6.9°
Reaches altitude 10° 11:18:06 10° 224° (SW) 2,506 5.0 -6.8°
Maximum altitude 11:23:46 61° 304° (NW) 1,003 3.5 -5.8°
Drops below altitude 10° 11:29:45 10° 24° (NNE) 2,641 6.8 -4.8°
Sets 11:32:26 0° 28° (NNE) 3,644 7.7 -4.3°
